Main page
METAR-TAF:

METAR-TAF

Airports :

Oil platform

Goeree Le, Netherlands

latitude: 51-55-33N, longitude: 3-40-12E, elevation: 19 m

Current weather observation

The report was made 20 minutes ago, at 20:25 UTC
Wind 37 kt from the Southwest
Temperature 18°C
Humidity 68%
Pressure 1007 hPa
Visibility 10 km or more

METAR: EHSC 282025Z AUTO 23037KT 9999 ///////// 18/12 Q1007 W18/H25

Time: 22:45 (20:45 UTC)


TAF: missing

Weather observations and forecasts of more than 4000 airports (METAR and TAF reports).

The available stations are represented by yellow and red dots on the map.

Hover mouse over dot to see the name of the station.

Then click to see weather observations and forecasts.

To change the map : click on the green buttons with a black cross to zoom in, on the green button with a dash to zoom out, or on the green arrows for adjacent maps.


METAR-TAF: